[[{"header":{"parameterUnit":"m.s-1","parameterCategory":2,"la1":30.2991,"la2":30.254,"lo1":-89.0895,"lo2":-89.0444,"dy":0.0017,"dx":0.0017,"nx":28,"ny":28,"refTime":"2023-08-28T03:00:00:Z","depth":"0","parameterNumber":2,"parameterNumberName":"U-component_of_CURRENTS"},"data":[0,0,0,0,0,0,0,0,0,0,0,0,0,0,0,0,0,0,0,0,0,0,0,0,0,0,0,0,0,0,0,0,0,0,0,0,0,0,0,0,0,0,0,0,0,0,0,0,0,0,0,0,0,0,0,0,0,0,0.2748,0.2749,0,0.2785,0.2785,0.2785,0.2795,0.2795,0.2795,0.2795,0.2824,0.2825,0.2826,0,0,0,0,0,0,0,0,0,0,0,0,0,0.2737,0.2737,0.2748,0.2749,0.2749,0.2785,0.2785,0.2786,0.2795,0.2795,0.2795,0.2795,0.2824,0.2825,0.2826,0,0,0,0,0,0,0,0,0,0,0,0,0,0.2754,0.2737,0.2748,0.2758,0.276,0.2784,0.2785,0.2786,0.2795,0.2795,0.2795,0.2794,0.2823,0.2825,0.2826,0.2841,0,0,0.2831,0.2831,0,0,0,0,0,0,0,0,0.2753,0.2755,0.2757,0.2758,0.2759,0.2785,0.2792,0.2804,0.2795,0.2782,0.2795,0.2794,0.2811,0.2813,0.2821,0.2843,0.2844,0.2831,0.2832,0.2832,0.2833,0,0,0,0,0,0,0,0.2752,0.2753,0.2763,0.2757,0.2759,0.2778,0.278,0.2794,0.2797,0.2783,0.2784,0.2788,0.2811,0.2819,0.2821,0.2844,0.2831,0.2832,0.2833,0.2833,0.2932,0.2933,0,0,0,0,0,0,0.2745,0.2752,0.2762,0.2764,0.2756,0.2778,0.278,0.2777,0.2797,0.28,0.2788,0.2788,0.2817,0.282,0.2822,0.2886,0.2832,0.2834,0.2834,0.293,0.2932,0.2934,0,0,0,0,0,0,0.2745,0.2746,0.276,0.2759,0.2763,0.2779,0.2775,0.2778,0.2788,0.2801,0.2804,0.2796,0.2817,0.282,0.285,0.2886,0.2834,0.2836,0.2928,0.2931,0.2933,0.2985,0,0,0,0,0,0,0.2744,0.2745,0.2743,0.2759,0.2762,0.2788,0.2776,0.2779,0.2791,0.2792,0.2809,0.2811,0.2817,0.2847,0.2851,0.2887,0.2837,0.2926,0.2929,0.2932,0.2981,0.2989,0.2996,0,0,0,0,0,0.2744,0.2744,0.2742,0.2744,0.2758,0.2789,0.2794,0.2804,0.2792,0.2809,0.2819,0.2811,0.2871,0.285,0.2854,0.2891,0.2924,0.2928,0.2932,0.2978,0.2988,0.2996,0,0,0,0,0,0,0.2737,0.2745,0.2744,0.2746,0.2771,0.2791,0.2806,0.2806,0.2826,0.2827,0.2827,0.2832,0.2882,0.2874,0.285,0.293,0.2899,0.2904,0.2932,0.2942,0.2949,0.2971,0.2838,0,0,0,0,0,0.2734,0.2736,0.2755,0.2758,0.2772,0.2788,0.28,0.2811,0.2829,0.2837,0.285,0.2868,0.2902,0.2909,0.2941,0.2969,0.3001,0.2998,0.3005,0.3011,0.3034,0.3114,0.3131,0.2947,0.2947,0.2947,0,0,0.2728,0.2737,0.2735,0.2757,0.2776,0.2809,0.2795,0.2825,0.2852,0.2838,0.288,0.2902,0.2919,0.2969,0.2988,0.2961,0.3081,0.3016,0.3021,0.3041,0.312,0.3138,0.3154,0.2949,0.2949,0.2949,0,0,0.2739,0.2734,0.275,0.2774,0.281,0.2827,0.2835,0.2867,0.2883,0.292,0.2932,0.2975,0.3,0.3037,0.3051,0.3115,0.313,0.3119,0.316,0.3237,0.3253,0.3268,0.3334,0.3354,0.3107,0.3107,0.3107,0,0.2736,0.2751,0.2762,0.2796,0.2817,0.2835,0.2869,0.2896,0.2933,0.2958,0.2942,0.3031,0.3041,0.3116,0.3141,0.3135,0.3175,0.3121,0.3248,0.3263,0.3277,0.3342,0.3363,0.311,0.311,0.3109,0.3109,0,0.2769,0.2782,0.2799,0.2842,0.2873,0.2903,0.2944,0.2978,0.2991,0.3019,0.3098,0.3125,0.3175,0.3188,0.318,0.3287,0.3283,0.326,0.3225,0.3299,0.3362,0.3383,0.3114,0.3113,0.3112,0.3112,0,0,0.2749,0.2808,0.2812,0.2836,0.2895,0.2924,0.2983,0.3042,0.3083,0.313,0.3195,0.3259,0.3278,0.3299,0.3309,0.3369,0.3495,0.3353,0.3356,0.342,0.3671,0.351,0.3518,0.3493,0.3497,0.35,0.3675,0,0.2769,0.2824,0.2855,0.291,0.2939,0.2982,0.3034,0.3095,0.314,0.3211,0.3265,0.3335,0.3317,0.3348,0.3412,0.3483,0.3555,0.3451,0.359,0.3595,0.3443,0.3538,0.3307,0.3429,0.3696,0.37,0.3702,0,0.2784,0.282,0.2872,0.2935,0.2955,0.2994,0.3078,0.3132,0.3237,0.3278,0.3362,0.3407,0.3521,0.3483,0.3656,0.359,0.3645,0.369,0.3697,0.3546,0.3474,0.3399,0.3458,0.338,0.3735,0.3732,0.373,0,0.2751,0.2824,0.2859,0.2882,0.2967,0.3,0.3049,0.3148,0.3207,0.3332,0.3397,0.3518,0.3595,0.3691,0.3766,0.3731,0.3946,0.3903,0.382,0.381,0.364,0.3605,0.3637,0.4043,0.4043,0.4042,0.4042,0,0.274,0.2766,0.2843,0.286,0.2922,0.2984,0.3058,0.313,0.3242,0.3336,0.343,0.353,0.3655,0.3771,0.3825,0.3884,0.3997,0.3861,0.3853,0.3647,0.3613,0.3555,0.3537,0.4049,0.4048,0.4046,0.4045,0,0.2689,0.2736,0.2785,0.2872,0.2904,0.2947,0.3057,0.3118,0.3227,0.3359,0.3408,0.3581,0.3727,0.3826,0.3993,0.3947,0.3897,0.4014,0.3751,0.3706,0.3482,0.3475,0.339,0.3303,0.3951,0.3948,0.3946,0,0.2662,0.268,0.2782,0.2823,0.2861,0.2932,0.2991,0.3102,0.3182,0.3385,0.3461,0.3632,0.3743,0.3899,0.3853,0.3905,0.3844,0.3703,0.3577,0.3459,0.3451,0.3332,0.3259,0.3397,0.3391,0.3385,0.3381,0,0.2626,0.2665,0.2722,0.2808,0.287,0.2935,0.3029,0.3084,0.3233,0.3337,0.3502,0.3599,0.3705,0.3632,0.364,0.3632,0.3474,0.3587,0.3555,0.3094,0.2884,0.2797,0.3302,0.3332,0.3337,0.3341,0.3343,0.3345,0.2611,0.2648,0.2737,0.2804,0.2873,0.2935,0.2955,0.3061,0.3161,0.327,0.3426,0.3477,0.343,0.3387,0.3351,0.3088,0.316,0.2959,0.2993,0.2909,0.2705,0.3081,0.3025,0.3028,0.3031,0.3033,0.3035,0,0.2614,0.2665,0.2729,0.2811,0.2842,0.2899,0.298,0.2971,0.3031,0.3135,0.3214,0.3126,0.3007,0.2944,0.2678,0.2516,0.2408,0.2457,0.2279,0.2265,0.2684,0.2535,0.2257,0.2257,0.2257,0.2258,0.2258,0.2258,0.2631,0.2691,0.2717,0.2762,0.2797,0.2801,0.2813,0.2809,0.2845,0.2791,0.2715,0.2708,0.2673,0.2484,0.2239,0.2166,0.204,0.1871,0.1989,0.2318,0.2368,0.2416,0.2271,0.1943,0.1943,0.1405,0.1401,0.1398]},{"header":{"parameterUnit":"m.s-1","parameterCategory":2,"la1":30.2991,"la2":30.254,"lo1":-89.0895,"lo2":-89.0444,"dy":0.0017,"dx":0.0017,"nx":28,"ny":28,"refTime":"2023-08-28T03:00:00:Z","depth":"0","parameterNumber":3,"parameterNumberName":"V-component_of_CURRENTS"},"data":[0,0,0,0,0,0,0,0,0,0,0,0,0,0,0,0,0,0,0,0,0,0,0,0,0,0,0,0,0,0,0,0,0,0,0,0,0,0,0,0,0,0,0,0,0,0,0,0,0,0,0,0,0,0,0,0,0,0,0.0162,0.0162,0,0.0142,0.0141,0.0141,0.0123,0.0123,0.0123,0.0123,0.009,0.009,0.0089,0,0,0,0,0,0,0,0,0,0,0,0,0,0.0164,0.0164,0.0162,0.0162,0.0162,0.0142,0.0141,0.0141,0.0123,0.0123,0.0123,0.0122,0.0091,0.009,0.0089,0,0,0,0,0,0,0,0,0,0,0,0,0,0.0155,0.0164,0.0162,0.0151,0.015,0.0142,0.0141,0.0141,0.0123,0.0123,0.0123,0.0122,0.0091,0.009,0.0089,0.0087,0,0,0.0086,0.0085,0,0,0,0,0,0,0,0,0.0155,0.0155,0.0153,0.0152,0.015,0.0135,0.013,0.0123,0.0123,0.0133,0.0123,0.0122,0.0105,0.0102,0.0099,0.0086,0.0084,0.0085,0.0085,0.0084,0.0084,0,0,0,0,0,0,0,0.0156,0.0155,0.0154,0.0152,0.0151,0.0139,0.0138,0.0128,0.012,0.0132,0.0131,0.0129,0.0104,0.01,0.0098,0.0084,0.0085,0.0084,0.0084,0.0083,0.0077,0.0077,0,0,0,0,0,0,0.0161,0.0156,0.0154,0.0153,0.0153,0.0139,0.0138,0.014,0.012,0.0117,0.0129,0.0128,0.0102,0.0099,0.0097,0.0115,0.0084,0.0083,0.0083,0.0076,0.0077,0.0077,0,0,0,0,0,0,0.0161,0.0161,0.0155,0.0154,0.0153,0.014,0.0142,0.014,0.0138,0.0118,0.0115,0.0131,0.0101,0.0098,0.0098,0.0113,0.0083,0.0082,0.0076,0.0077,0.0077,0.0138,0,0,0,0,0,0,0.0161,0.0161,0.0164,0.0155,0.0153,0.0158,0.0142,0.0139,0.0137,0.0136,0.0118,0.0115,0.0101,0.01,0.0097,0.0111,0.0081,0.0075,0.0076,0.0077,0.0135,0.014,0.0145,0,0,0,0,0,0.0161,0.017,0.0165,0.0164,0.0158,0.0159,0.0157,0.0146,0.0138,0.0143,0.0132,0.0116,0.0103,0.0099,0.0096,0.011,0.0075,0.0076,0.0077,0.0133,0.0139,0.0145,0,0,0,0,0,0,0.0169,0.0168,0.0163,0.0169,0.0167,0.0156,0.016,0.0151,0.0146,0.0145,0.0124,0.012,0.0125,0.0108,0.0104,0.0109,0.0085,0.0085,0.0129,0.0135,0.0139,0.0164,0.008,0,0,0,0,0,0.0173,0.0181,0.0175,0.0181,0.0182,0.0171,0.017,0.0164,0.0158,0.0155,0.0144,0.0132,0.0126,0.0123,0.0114,0.0118,0.0124,0.0123,0.0128,0.0132,0.0149,0.0164,0.0172,0.0081,0.0081,0.0081,0,0,0.0177,0.0178,0.0181,0.0184,0.0181,0.0194,0.017,0.0175,0.0187,0.0153,0.0166,0.0149,0.0131,0.0137,0.0137,0.0126,0.0163,0.0133,0.0137,0.0152,0.0166,0.0175,0.0183,0.0081,0.0081,0.0081,0,0,0.0197,0.0192,0.0208,0.0212,0.0214,0.0211,0.0215,0.021,0.0209,0.0216,0.0197,0.0194,0.018,0.0177,0.0171,0.0197,0.0188,0.0185,0.0232,0.0246,0.0254,0.0262,0.0295,0.0305,0.0188,0.0188,0.0188,0,0.0202,0.0223,0.0213,0.0232,0.0243,0.0223,0.0247,0.0244,0.024,0.0249,0.0228,0.0226,0.0204,0.0224,0.0229,0.0211,0.0222,0.0212,0.0255,0.0262,0.0268,0.03,0.031,0.0191,0.0191,0.0191,0.019,0,0.0237,0.0254,0.0266,0.0287,0.0295,0.0312,0.031,0.0319,0.0311,0.031,0.0325,0.0299,0.0303,0.0287,0.0264,0.0297,0.0294,0.0261,0.0245,0.0282,0.0313,0.0322,0.0196,0.0195,0.0194,0.0193,0,0,0.0255,0.0285,0.0292,0.0316,0.0328,0.0343,0.0366,0.0387,0.0415,0.0399,0.0439,0.0413,0.04,0.0393,0.0365,0.0369,0.0417,0.0337,0.0336,0.038,0.047,0.0423,0.0429,0.0391,0.0393,0.0394,0.048,0,0.029,0.0341,0.0346,0.0398,0.0426,0.0423,0.0451,0.0466,0.0471,0.0503,0.0481,0.0503,0.044,0.045,0.0444,0.0427,0.0442,0.0399,0.042,0.0421,0.0383,0.0438,0.0422,0.0492,0.0489,0.049,0.0491,0,0.033,0.0361,0.0416,0.0467,0.048,0.0508,0.0559,0.0581,0.0609,0.0615,0.0627,0.0613,0.0628,0.0564,0.0568,0.0544,0.0519,0.0497,0.0499,0.0442,0.0391,0.0451,0.0509,0.0419,0.0506,0.0504,0.0503,0,0.0362,0.0416,0.0465,0.048,0.0527,0.0559,0.0587,0.0619,0.0658,0.0698,0.074,0.0733,0.0766,0.072,0.0669,0.0628,0.0677,0.0612,0.0554,0.0551,0.0536,0.0528,0.0517,0.0626,0.0626,0.0626,0.0625,0,0.0403,0.0445,0.0487,0.0516,0.0587,0.0603,0.068,0.0702,0.0758,0.0836,0.0807,0.0881,0.0807,0.0818,0.0735,0.0689,0.0734,0.0588,0.0574,0.0556,0.0549,0.0465,0.04,0.0629,0.0628,0.0627,0.0627,0,0.0434,0.0457,0.0521,0.058,0.0605,0.0658,0.0744,0.0801,0.0844,0.0952,0.0978,0.1023,0.1046,0.0964,0.0923,0.08,0.0682,0.071,0.0701,0.0683,0.0491,0.043,0.0405,0.0376,0.0653,0.0652,0.0652,0,0.0454,0.0488,0.0567,0.0614,0.0646,0.0723,0.0783,0.0838,0.0912,0.1052,0.1121,0.1184,0.1258,0.1173,0.0976,0.0842,0.073,0.0702,0.0596,0.0502,0.0424,0.0375,0.035,0.0617,0.0616,0.0615,0.0615,0,0.0494,0.0521,0.0573,0.0667,0.0739,0.0825,0.092,0.0992,0.1088,0.1207,0.1377,0.1455,0.138,0.1249,0.1027,0.0902,0.0616,0.0681,0.0595,0.0408,0.0348,0.0307,0.0551,0.0609,0.061,0.061,0.0611,0.0611,0.0524,0.0569,0.0639,0.073,0.0814,0.0927,0.1015,0.1142,0.1298,0.1503,0.1563,0.172,0.1472,0.1177,0.0985,0.0592,0.06,0.0455,0.04,0.037,0.0298,0.0529,0.0547,0.0547,0.0547,0.0547,0.0547,0,0.0564,0.0618,0.0701,0.0813,0.091,0.0949,0.1109,0.1221,0.1434,0.1644,0.1816,0.1788,0.1487,0.1144,0.0597,0.0349,0.0267,0.0228,0.0166,0.0162,0.0389,0.034,0.0299,0.0299,0.0299,0.03,0.03,0.03,0.0589,0.0668,0.0712,0.0873,0.0956,0.1098,0.1197,0.1391,0.1568,0.1833,0.1948,0.2006,0.1711,0.0802,0.0237,0.0122,-0.0013,-0.0068,-0.0108,0.0037,0.0055,0.0071,0.0011,-0.0098,-0.0099,-0.0304,-0.0307,-0.0308]}],[{"header":{"parameterUnit":"m.s-1","parameterCategory":2,"la1":30.2991,"la2":30.254,"lo1":-89.0895,"lo2":-89.0444,"dy":0.0017,"dx":0.0017,"nx":28,"ny":28,"refTime":"2023-08-28T03:00:00:Z","depth":"2","parameterNumber":2,"parameterNumberName":"U-component_of_CURRENTS"},"data":[0,0,0,0,0,0,0,0,0,0,0,0,0,0,0,0,0,0,0,0,0,0,0,0,0,0,0,0,0,0,0,0,0,0,0,0,0,0,0,0,0,0,0,0,0,0,0,0,0,0,0,0,0,0,0,0,0,0,0.2151,0.2151,0,0.2143,0.2143,0.2143,0.2143,0.2144,0.2144,0.2144,0.2172,0.2172,0.2173,0,0,0,0,0,0,0,0,0,0,0,0,0,0.2169,0.2168,0.2151,0.2151,0.2151,0.2143,0.2143,0.2143,0.2143,0.2144,0.2144,0.2145,0.2172,0.2172,0.2173,0,0,0,0,0,0,0,0,0,0,0,0,0,0.2159,0.2168,0.2151,0.2152,0.2153,0.2144,0.2143,0.2143,0.2143,0.2144,0.2144,0.2145,0.2171,0.2172,0.2173,0.2166,0,0,0.2175,0.2175,0,0,0,0,0,0,0,0,0.2159,0.2158,0.2152,0.2152,0.2152,0.2147,0.216,0.2153,0.2143,0.2144,0.2144,0.2145,0.2168,0.2169,0.2162,0.2168,0.2169,0.2175,0.2175,0.2175,0.2175,0,0,0,0,0,0,0,0.216,0.2158,0.2145,0.2152,0.2152,0.2155,0.2154,0.2158,0.2152,0.2144,0.2145,0.2148,0.2168,0.2162,0.2163,0.2169,0.2175,0.2175,0.2176,0.2176,0.2237,0.2239,0,0,0,0,0,0,0.2165,0.2159,0.2146,0.2145,0.216,0.2154,0.2153,0.2146,0.2151,0.2153,0.2147,0.2148,0.216,0.2162,0.2164,0.2225,0.2175,0.2176,0.2176,0.2236,0.2238,0.2239,0,0,0,0,0,0,0.2165,0.2164,0.2146,0.2155,0.2153,0.2154,0.2146,0.2146,0.2154,0.2154,0.2156,0.2158,0.2161,0.2163,0.2191,0.2224,0.2176,0.2177,0.2235,0.2237,0.2238,0.2304,0,0,0,0,0,0,0.2166,0.2163,0.2164,0.2155,0.2153,0.2159,0.2146,0.2145,0.2155,0.2156,0.2163,0.2165,0.2161,0.219,0.2192,0.2224,0.2177,0.2233,0.2236,0.2238,0.23,0.2308,0.2315,0,0,0,0,0,0.2166,0.2167,0.2164,0.2163,0.2152,0.2161,0.216,0.216,0.2156,0.2167,0.2175,0.2166,0.2206,0.2192,0.2193,0.2226,0.2232,0.2235,0.2238,0.2297,0.2307,0.2314,0,0,0,0,0,0,0.2173,0.2167,0.2163,0.2161,0.217,0.2162,0.217,0.2168,0.218,0.2184,0.2179,0.2183,0.2221,0.2212,0.2196,0.2251,0.2219,0.2222,0.2263,0.2272,0.2279,0.2288,0.2178,0,0,0,0,0,0.2175,0.2175,0.2173,0.2175,0.2178,0.2175,0.2179,0.2183,0.2189,0.2194,0.2199,0.2209,0.223,0.2242,0.2254,0.228,0.2292,0.2302,0.2309,0.2316,0.2324,0.2373,0.2386,0.2248,0.2248,0.2248,0,0,0.2176,0.2176,0.2174,0.2177,0.2179,0.2188,0.2179,0.2193,0.2208,0.2196,0.222,0.2235,0.2243,0.2279,0.2295,0.2278,0.2364,0.2319,0.2324,0.2329,0.2377,0.2391,0.2403,0.225,0.225,0.225,0,0,0.2182,0.2181,0.2183,0.2193,0.2206,0.2208,0.2217,0.2222,0.2233,0.2255,0.2262,0.2294,0.2309,0.2331,0.2342,0.2392,0.2401,0.2401,0.2445,0.2493,0.2505,0.2515,0.2561,0.2575,0.2404,0.2404,0.2404,0,0.2186,0.2185,0.2188,0.2198,0.2209,0.2219,0.2231,0.2245,0.2261,0.2282,0.2272,0.2329,0.2332,0.2394,0.2416,0.2409,0.2442,0.2412,0.2504,0.2514,0.2524,0.2568,0.2583,0.2407,0.2407,0.2406,0.2406,0,0.2191,0.2197,0.2204,0.2217,0.2232,0.2248,0.2267,0.2294,0.2306,0.2321,0.2383,0.2397,0.2433,0.2446,0.2445,0.2527,0.2531,0.2509,0.2484,0.2542,0.2584,0.2599,0.2412,0.2411,0.241,0.2409,0,0,0.2179,0.2201,0.2204,0.2213,0.2244,0.2253,0.2296,0.2335,0.237,0.24,0.2451,0.2495,0.2516,0.2531,0.2549,0.2593,0.2688,0.259,0.2591,0.2638,0.2813,0.2677,0.2679,0.2695,0.2697,0.2699,0.2819,0,0.2183,0.2196,0.2214,0.2238,0.2243,0.2282,0.2317,0.2361,0.24,0.2455,0.2501,0.2554,0.2546,0.2582,0.2627,0.2679,0.2728,0.2658,0.2745,0.2748,0.2623,0.2691,0.2463,0.2537,0.2832,0.2835,0.2836,0,0.2177,0.2187,0.2203,0.2242,0.2251,0.2277,0.2345,0.2384,0.2472,0.2507,0.258,0.2617,0.271,0.2679,0.2803,0.2769,0.2799,0.2826,0.2831,0.2688,0.2637,0.2524,0.2552,0.286,0.2858,0.2856,0.2855,0,0.2149,0.2181,0.2192,0.2203,0.225,0.2282,0.2325,0.2403,0.2451,0.2561,0.2613,0.2709,0.2773,0.2836,0.2884,0.2868,0.3003,0.2976,0.2884,0.2875,0.2686,0.2655,0.3055,0.3055,0.3055,0.3054,0.3054,0,0.2136,0.2147,0.2181,0.2187,0.2223,0.2267,0.2332,0.2393,0.2489,0.2554,0.2648,0.2708,0.282,0.2897,0.2928,0.2948,0.3038,0.2908,0.2899,0.2701,0.2671,0.2944,0.2929,0.3059,0.3058,0.3057,0.3056,0,0.2097,0.2121,0.2135,0.2185,0.2209,0.2238,0.2335,0.2379,0.2485,0.258,0.2625,0.2749,0.2847,0.2929,0.3033,0.299,0.3025,0.3002,0.2756,0.2714,0.2863,0.285,0.2933,0.2929,0.2926,0.2923,0.2921,0,0.2076,0.2075,0.2122,0.2144,0.2172,0.2228,0.2268,0.2369,0.2417,0.2582,0.2615,0.2753,0.28,0.2898,0.2869,0.2899,0.2978,0.2677,0.2577,0.2868,0.2853,0.2845,0.2837,0.2376,0.2369,0.2364,0.236,0,0.2036,0.2054,0.2069,0.2108,0.2149,0.2183,0.2251,0.2277,0.2397,0.2474,0.2552,0.2609,0.2697,0.2599,0.2624,0.26,0.2651,0.2565,0.2964,0.2414,0.2344,0.2328,0.2339,0.2312,0.2317,0.2321,0.2323,0.2325,0.2009,0.2011,0.2036,0.2065,0.2099,0.2108,0.2111,0.2167,0.221,0.2276,0.2389,0.2399,0.242,0.2327,0.225,0.2191,0.2376,0.2267,0.2284,0.2307,0.2193,0.2118,0.2024,0.2027,0.203,0.2032,0.2034,0,0.197,0.1973,0.1996,0.2009,0.1992,0.2056,0.2066,0.2027,0.2012,0.2094,0.2129,0.1959,0.1893,0.1935,0.1764,0.1731,0.1724,0.166,0.1644,0.1692,0.1735,0.1591,0.1264,0.1261,0.1259,0.1257,0,0,0.1954,0.1945,0.1944,0.1887,0.1902,0.1853,0.1834,0.1781,0.1779,0.1715,0.1707,0.184,0.1891,0.1574,0.1505,0.1361,0.152,0.13,0.1921,0.1953,0.1993,0.2089,0.1922,0,0,0,0,0]},{"header":{"parameterUnit":"m.s-1","parameterCategory":2,"la1":30.2991,"la2":30.254,"lo1":-89.0895,"lo2":-89.0444,"dy":0.0017,"dx":0.0017,"nx":28,"ny":28,"refTime":"2023-08-28T03:00:00:Z","depth":"2","parameterNumber":3,"parameterNumberName":"V-component_of_CURRENTS"},"data":[0,0,0,0,0,0,0,0,0,0,0,0,0,0,0,0,0,0,0,0,0,0,0,0,0,0,0,0,0,0,0,0,0,0,0,0,0,0,0,0,0,0,0,0,0,0,0,0,0,0,0,0,0,0,0,0,0,0,0.0124,0.0124,0,0.0106,0.0106,0.0106,0.0091,0.009,0.009,0.009,0.006,0.0059,0.0059,0,0,0,0,0,0,0,0,0,0,0,0,0,0.0125,0.0126,0.0124,0.0124,0.0124,0.0106,0.0106,0.0106,0.0091,0.009,0.009,0.009,0.006,0.0059,0.0058,0,0,0,0,0,0,0,0,0,0,0,0,0,0.0118,0.0126,0.0125,0.0114,0.0113,0.0106,0.0106,0.0106,0.0091,0.009,0.009,0.009,0.006,0.0059,0.0058,0.0057,0,0,0.0055,0.0055,0,0,0,0,0,0,0,0,0.0118,0.0118,0.0116,0.0115,0.0114,0.0101,0.0095,0.0089,0.0091,0.0099,0.009,0.009,0.0073,0.0071,0.0068,0.0055,0.0054,0.0055,0.0055,0.0054,0.0054,0,0,0,0,0,0,0,0.0119,0.0118,0.0117,0.0116,0.0115,0.0104,0.0103,0.0094,0.0087,0.0098,0.0097,0.0095,0.0072,0.0069,0.0067,0.0054,0.0055,0.0054,0.0054,0.0053,0.0045,0.0045,0,0,0,0,0,0,0.0123,0.0119,0.0118,0.0117,0.0116,0.0104,0.0103,0.0105,0.0087,0.0085,0.0096,0.0095,0.007,0.0068,0.0066,0.0078,0.0054,0.0053,0.0053,0.0045,0.0045,0.0045,0,0,0,0,0,0,0.0123,0.0123,0.0118,0.0117,0.0116,0.0104,0.0107,0.0105,0.0103,0.0085,0.0082,0.0097,0.007,0.0067,0.0065,0.0076,0.0053,0.0052,0.0044,0.0045,0.0045,0.0092,0,0,0,0,0,0,0.0123,0.0123,0.0126,0.0118,0.0116,0.012,0.0107,0.0104,0.0103,0.0101,0.0085,0.0082,0.007,0.0067,0.0064,0.0074,0.0051,0.0044,0.0044,0.0045,0.009,0.0094,0.0097,0,0,0,0,0,0.0123,0.013,0.0127,0.0126,0.0121,0.0121,0.0119,0.011,0.0103,0.0107,0.0097,0.0083,0.0069,0.0066,0.0063,0.0073,0.0043,0.0044,0.0045,0.0088,0.0093,0.0097,0,0,0,0,0,0,0.013,0.0129,0.0125,0.013,0.0128,0.0119,0.0121,0.0113,0.0108,0.0108,0.0089,0.0086,0.0087,0.0073,0.0071,0.0072,0.0053,0.0053,0.0087,0.0092,0.0095,0.0111,0.005,0,0,0,0,0,0.0133,0.0141,0.0135,0.014,0.0141,0.0131,0.013,0.0125,0.0119,0.0116,0.0106,0.0094,0.0088,0.0085,0.0076,0.0078,0.0069,0.0081,0.0085,0.0088,0.0098,0.0093,0.0098,0.0048,0.0048,0.0048,0,0,0.0136,0.0138,0.0141,0.0143,0.014,0.015,0.013,0.0133,0.0143,0.0114,0.0123,0.0107,0.0091,0.0095,0.0094,0.0085,0.0097,0.0089,0.0092,0.0101,0.0094,0.0099,0.0104,0.0049,0.0049,0.0049,0,0,0.0152,0.0149,0.0163,0.0166,0.0167,0.0164,0.0167,0.0162,0.016,0.0165,0.0147,0.0141,0.013,0.0123,0.0117,0.0136,0.0117,0.0129,0.0163,0.0158,0.0162,0.0166,0.0161,0.0164,0.0132,0.0132,0.0132,0,0.0156,0.0175,0.0166,0.0182,0.0191,0.0174,0.0194,0.0191,0.0186,0.0192,0.0175,0.0166,0.0146,0.0157,0.016,0.0146,0.014,0.0148,0.0164,0.0167,0.017,0.0165,0.0167,0.0134,0.0134,0.0134,0.0134,0,0.0185,0.02,0.0209,0.0228,0.0235,0.0248,0.0246,0.0252,0.0245,0.0242,0.0248,0.0221,0.022,0.0206,0.0187,0.02,0.0188,0.0169,0.0155,0.0178,0.0171,0.0173,0.0138,0.0137,0.0136,0.0136,0,0,0.0199,0.0225,0.0231,0.0252,0.0262,0.0275,0.0292,0.0308,0.033,0.0312,0.0338,0.031,0.0295,0.0287,0.0261,0.0249,0.0256,0.0221,0.0219,0.0222,0.0248,0.0213,0.0212,0.024,0.0241,0.0241,0.0235,0,0.0228,0.0271,0.0276,0.0321,0.0345,0.0342,0.0366,0.0376,0.0377,0.0396,0.0367,0.038,0.0327,0.0331,0.031,0.0275,0.0263,0.0259,0.0221,0.022,0.019,0.0214,0.0224,0.0217,0.0237,0.0237,0.0237,0,0.0261,0.0288,0.0335,0.0381,0.0392,0.0416,0.0458,0.0477,0.0491,0.0493,0.049,0.047,0.0459,0.0408,0.036,0.0361,0.0311,0.0273,0.0272,0.0226,0.0189,0.0196,0.022,0.024,0.024,0.0239,0.0239,0,0.0288,0.0335,0.0377,0.0391,0.0433,0.0459,0.0486,0.0509,0.0544,0.0561,0.0592,0.0558,0.0567,0.0495,0.0409,0.0391,0.0352,0.0317,0.0239,0.0236,0.0231,0.0227,0.0283,0.0283,0.0284,0.0284,0.0284,0,0.0323,0.0359,0.0396,0.0421,0.0485,0.0499,0.0569,0.0585,0.0628,0.0694,0.065,0.069,0.059,0.0552,0.045,0.0356,0.0384,0.0255,0.0235,0.0246,0.0244,0.0249,0.0245,0.0283,0.0283,0.0283,0.0283,0,0.0349,0.0369,0.0425,0.0477,0.0501,0.0549,0.0633,0.0685,0.0715,0.0802,0.0819,0.0806,0.0759,0.0645,0.054,0.0428,0.0326,0.0282,0.03,0.0282,0.0203,0.0201,0.0201,0.02,0.0199,0.0198,0.0197,0,0.0366,0.0395,0.0467,0.0514,0.0543,0.0617,0.0676,0.0724,0.0793,0.088,0.0933,0.0915,0.0913,0.0735,0.0542,0.0366,0.0336,0.0245,0.0201,0.0215,0.0196,0.0196,0.0196,0.0217,0.0216,0.0216,0.0216,0,0.0402,0.0424,0.0471,0.0564,0.0635,0.0723,0.0815,0.0884,0.0964,0.104,0.1127,0.1128,0.0967,0.0789,0.0534,0.0404,0.0268,0.023,0.0259,0.0227,0.0227,0.0209,0.0209,0.0212,0.0212,0.0213,0.0213,0.0213,0.0429,0.047,0.0536,0.0626,0.0712,0.0829,0.0916,0.1021,0.1142,0.1262,0.125,0.1248,0.1037,0.0709,0.0485,0.0245,0.0259,0.016,0.0163,0.0166,0.016,0.0156,0.0128,0.0128,0.0128,0.0128,0.0128,0,0.0468,0.0518,0.06,0.0711,0.0811,0.0853,0.1011,0.1102,0.1255,0.1332,0.1388,0.1178,0.0975,0.0731,0.0379,0.0164,0.0149,0.0086,0.012,0.0125,0.013,0.0122,0.0081,0.008,0.0079,0.0078,0,0,0.0493,0.057,0.0611,0.0774,0.0859,0.1003,0.1101,0.1233,0.1321,0.1393,0.1382,0.1335,0.1045,0.0775,0.049,0.0291,0.0253,0.0242,0.0303,0.0383,0.039,0.0195,0.0192,0,0,0,0,0]}],[{"header":{"parameterUnit":"m.s-1","parameterCategory":2,"la1":30.2991,"la2":30.254,"lo1":-89.0895,"lo2":-89.0444,"dy":0.0017,"dx":0.0017,"nx":28,"ny":28,"refTime":"2023-08-28T03:00:00:Z","depth":"4","parameterNumber":2,"parameterNumberName":"U-component_of_CURRENTS"},"data":[0,0,0,0,0,0,0,0,0,0,0,0,0,0,0,0,0,0,0,0,0,0,0,0,0,0,0,0,0,0,0,0,0,0,0,0,0,0,0,0,0,0,0,0,0,0,0,0,0,0,0,0,0,0,0,0,0,0,0.1285,0.1285,0,0.1292,0.1292,0.1292,0.1321,0.1321,0.1322,0.1323,0.1353,0.1353,0.1353,0,0,0,0,0,0,0,0,0,0,0,0,0,0.1287,0.1287,0.1285,0.1285,0.1285,0.1292,0.1292,0.1292,0.132,0.1321,0.1322,0.1323,0.1353,0.1353,0.1353,0,0,0,0,0,0,0,0,0,0,0,0,0,0.1289,0.1287,0.1285,0.13,0.1302,0.1292,0.1292,0.1292,0.132,0.1321,0.1322,0.1323,0.1353,0.1353,0.1353,0.1333,0,0,0.1354,0.1354,0,0,0,0,0,0,0,0,0.1289,0.1289,0.1298,0.1299,0.1301,0.1307,0.1304,0.1307,0.132,0.1313,0.1323,0.1324,0.1339,0.1341,0.1338,0.1335,0.1336,0.1354,0.1354,0.1354,0.1354,0,0,0,0,0,0,0,0.1289,0.1289,0.1287,0.1298,0.13,0.1305,0.1306,0.1305,0.132,0.1313,0.1316,0.1317,0.134,0.1338,0.134,0.1336,0.1354,0.1354,0.1354,0.1354,0.1406,0.1407,0,0,0,0,0,0,0.1288,0.1288,0.1287,0.1287,0.1298,0.1304,0.1305,0.1304,0.1319,0.1323,0.1316,0.1318,0.1337,0.1339,0.1341,0.1396,0.1354,0.1354,0.1354,0.1405,0.1406,0.1408,0,0,0,0,0,0,0.1288,0.1288,0.1287,0.1289,0.1289,0.1303,0.13,0.1303,0.1331,0.1321,0.1326,0.1345,0.1338,0.134,0.1364,0.1394,0.1354,0.1355,0.1403,0.1405,0.1407,0.1456,0,0,0,0,0,0,0.1288,0.1288,0.1302,0.1289,0.1289,0.1298,0.13,0.1303,0.1329,0.1332,0.1346,0.1349,0.1339,0.1364,0.1364,0.1394,0.1355,0.1402,0.1404,0.1407,0.1453,0.146,0.1465,0,0,0,0,0,0.1288,0.1294,0.1302,0.1303,0.1303,0.1298,0.13,0.1312,0.1329,0.1342,0.1355,0.135,0.1379,0.1364,0.1365,0.1396,0.1401,0.1404,0.1406,0.1451,0.1458,0.1465,0,0,0,0,0,0,0.1302,0.1297,0.1306,0.1311,0.1316,0.1304,0.132,0.1329,0.1348,0.1364,0.1358,0.1361,0.1394,0.1387,0.1371,0.1419,0.1392,0.1395,0.1426,0.1433,0.1439,0.1448,0.1355,0,0,0,0,0,0.131,0.1318,0.1312,0.1322,0.1326,0.1331,0.1339,0.1347,0.1354,0.1365,0.1376,0.139,0.14,0.1412,0.1416,0.1438,0.1443,0.1461,0.1467,0.1472,0.148,0.1513,0.1523,0.1417,0.1417,0.1417,0,0,0.132,0.1319,0.1326,0.1327,0.1334,0.1338,0.1339,0.1357,0.1372,0.1364,0.1402,0.1412,0.141,0.1436,0.1451,0.1438,0.1506,0.1476,0.148,0.1485,0.1517,0.1527,0.1537,0.1419,0.1419,0.1418,0,0,0.1328,0.1343,0.1349,0.1354,0.1368,0.1366,0.1379,0.1387,0.1409,0.1434,0.1438,0.1466,0.1481,0.1487,0.1489,0.1532,0.1536,0.1544,0.1583,0.1616,0.1625,0.1632,0.1654,0.1664,0.1549,0.1549,0.1549,0,0.1346,0.1344,0.1352,0.1357,0.1366,0.1382,0.139,0.1406,0.1427,0.1448,0.1456,0.1499,0.1502,0.153,0.1552,0.1546,0.1566,0.1554,0.1624,0.1632,0.1639,0.1659,0.1669,0.1551,0.1551,0.1551,0.1551,0,0.1343,0.1357,0.1363,0.1374,0.1387,0.1399,0.1415,0.1446,0.1477,0.1492,0.1543,0.1552,0.158,0.1589,0.1585,0.1643,0.1641,0.1626,0.1604,0.1653,0.1671,0.168,0.1555,0.1554,0.1554,0.1553,0,0,0.1338,0.1357,0.1364,0.1372,0.14,0.1401,0.1443,0.1471,0.1503,0.1544,0.1588,0.1618,0.1644,0.165,0.1658,0.169,0.176,0.1694,0.1694,0.1714,0.184,0.1704,0.1701,0.1768,0.177,0.1771,0.1833,0,0.1337,0.1346,0.136,0.1379,0.1384,0.1419,0.145,0.1488,0.1528,0.1577,0.1615,0.1659,0.166,0.1691,0.1726,0.1751,0.1788,0.1745,0.1792,0.1793,0.1665,0.1708,0.1778,0.184,0.1842,0.1843,0.1845,0,0.1323,0.1332,0.1349,0.1378,0.1386,0.1408,0.1464,0.1495,0.1569,0.1609,0.1669,0.1702,0.1767,0.176,0.1837,0.1817,0.1843,0.1856,0.1858,0.172,0.1673,0.1781,0.1861,0.186,0.1859,0.1858,0.1857,0,0.1295,0.1322,0.1336,0.1345,0.1383,0.1414,0.1448,0.1515,0.1551,0.1645,0.1691,0.1758,0.181,0.1856,0.1892,0.1884,0.1965,0.1946,0.1845,0.1836,0.1919,0.1909,0.2005,0.2005,0.2005,0.2005,0.2005,0,0.1268,0.1282,0.1329,0.1332,0.1362,0.1405,0.1454,0.1503,0.1583,0.1627,0.1716,0.1757,0.1844,0.1894,0.1918,0.1903,0.1987,0.1859,0.1844,0.1937,0.193,0.1925,0.1915,0.2007,0.2007,0.2006,0.2006,0,0.1227,0.1259,0.1273,0.1324,0.1347,0.1373,0.1452,0.1477,0.1577,0.1644,0.1684,0.1784,0.185,0.1908,0.1976,0.1918,0.1925,0.1901,0.2002,0.1991,0.1771,0.1764,0.1793,0.1789,0.1785,0.1782,0.178,0,0.12,0.1206,0.1261,0.127,0.1296,0.1348,0.1376,0.147,0.1496,0.1637,0.1652,0.1764,0.182,0.1806,0.1872,0.1895,0.1875,0.1855,0.1809,0.1768,0.1752,0.1749,0.1746,0.1774,0.1773,0.1772,0.1771,0,0.1145,0.1179,0.1187,0.1214,0.1242,0.126,0.1312,0.1328,0.1435,0.1548,0.1589,0.1627,0.1694,0.1729,0.1757,0.1769,0.1849,0.1816,0.1824,0.1781,0.1745,0.1732,0.1733,0.1759,0.1761,0.1762,0.1762,0,0.1107,0.1099,0.112,0.1133,0.1161,0.1148,0.1192,0.1222,0.127,0.1432,0.1441,0.1568,0.1675,0.1664,0.1688,0.1687,0.1665,0.1595,0.1614,0.1628,0.1542,0.1471,0.1393,0,0,0,0,0,0.1058,0.1033,0.1034,0.1021,0.1043,0.1066,0.1127,0.1173,0.1297,0.1288,0.1362,0.1421,0.1468,0.1521,0.149,0.1609,0.1664,0.1562,0.1591,0.1689,0.1704,0.1616,0,0,0,0,0,0,0.1017,0.1015,0.1,0.093,0.0909,0.0917,0.0957,0.1038,0.1037,0.118,0.1216,0.1324,0.1392,0.1482,0.1464,0.148,0.1462,0.1642,0.1637,0.1681,0.1694,0.1706,0.162,0,0,0,0,0]},{"header":{"parameterUnit":"m.s-1","parameterCategory":2,"la1":30.2991,"la2":30.254,"lo1":-89.0895,"lo2":-89.0444,"dy":0.0017,"dx":0.0017,"nx":28,"ny":28,"refTime":"2023-08-28T03:00:00:Z","depth":"4","parameterNumber":3,"parameterNumberName":"V-component_of_CURRENTS"},"data":[0,0,0,0,0,0,0,0,0,0,0,0,0,0,0,0,0,0,0,0,0,0,0,0,0,0,0,0,0,0,0,0,0,0,0,0,0,0,0,0,0,0,0,0,0,0,0,0,0,0,0,0,0,0,0,0,0,0,0.0114,0.0114,0,0.0105,0.0105,0.0105,0.01,0.01,0.01,0.01,0.0086,0.0086,0.0085,0,0,0,0,0,0,0,0,0,0,0,0,0,0.0111,0.0111,0.0114,0.0114,0.0114,0.0105,0.0105,0.0105,0.01,0.01,0.01,0.01,0.0086,0.0086,0.0085,0,0,0,0,0,0,0,0,0,0,0,0,0,0.0108,0.0111,0.0114,0.0111,0.011,0.0105,0.0105,0.0105,0.01,0.01,0.01,0.01,0.0086,0.0086,0.0085,0.0082,0,0,0.0083,0.0083,0,0,0,0,0,0,0,0,0.0108,0.0108,0.0111,0.0111,0.011,0.0104,0.0099,0.0097,0.01,0.0104,0.01,0.01,0.0091,0.009,0.0089,0.0081,0.008,0.0083,0.0083,0.0083,0.0083,0,0,0,0,0,0,0,0.0109,0.0109,0.0111,0.0111,0.0111,0.0104,0.0104,0.0098,0.0098,0.0104,0.0104,0.0102,0.0091,0.0089,0.0088,0.008,0.0083,0.0083,0.0082,0.0082,0.008,0.008,0,0,0,0,0,0,0.0111,0.0109,0.0111,0.011,0.0109,0.0104,0.0104,0.0106,0.0098,0.0097,0.0102,0.0102,0.009,0.0089,0.0088,0.0101,0.0083,0.0082,0.0082,0.008,0.008,0.008,0,0,0,0,0,0,0.0111,0.0111,0.0111,0.0109,0.0109,0.0104,0.0107,0.0106,0.0108,0.0097,0.0096,0.0105,0.009,0.0089,0.0091,0.01,0.0082,0.0081,0.0079,0.008,0.008,0.0117,0,0,0,0,0,0,0.0111,0.0111,0.0114,0.0109,0.0109,0.0114,0.0107,0.0106,0.0107,0.0106,0.0099,0.0098,0.009,0.0092,0.009,0.0099,0.0081,0.0079,0.008,0.008,0.0115,0.0118,0.0121,0,0,0,0,0,0.0111,0.0116,0.0115,0.0115,0.0113,0.0115,0.0114,0.011,0.0107,0.0111,0.0107,0.0098,0.0094,0.0092,0.009,0.0099,0.0079,0.008,0.008,0.0114,0.0118,0.0121,0,0,0,0,0,0,0.0115,0.0116,0.0114,0.012,0.012,0.0114,0.0117,0.0113,0.0113,0.0114,0.0103,0.0102,0.0106,0.0096,0.0094,0.0099,0.0084,0.0084,0.011,0.0114,0.0117,0.0123,0.0081,0,0,0,0,0,0.0117,0.0124,0.0122,0.0127,0.0127,0.0123,0.0123,0.0121,0.0119,0.0119,0.0114,0.0109,0.0106,0.0106,0.0101,0.0105,0.0085,0.0108,0.0111,0.0113,0.0116,0.0096,0.0097,0.0083,0.0083,0.0083,0,0,0.012,0.0122,0.0125,0.0128,0.0128,0.0137,0.0123,0.0127,0.0136,0.0117,0.0128,0.0119,0.0109,0.0115,0.0115,0.0109,0.0107,0.0114,0.0117,0.0118,0.0097,0.0098,0.0099,0.0083,0.0083,0.0083,0,0,0.0131,0.0131,0.0142,0.0145,0.0148,0.0147,0.015,0.0149,0.015,0.0156,0.0146,0.0143,0.014,0.0136,0.0133,0.0148,0.0122,0.0145,0.0167,0.0147,0.0148,0.0148,0.0122,0.012,0.0147,0.0148,0.0148,0,0.0134,0.0149,0.0145,0.0157,0.0165,0.0155,0.0171,0.017,0.017,0.0175,0.0165,0.0161,0.015,0.0158,0.0162,0.0155,0.0136,0.0155,0.0151,0.0151,0.0151,0.0124,0.0122,0.0149,0.0149,0.0149,0.0149,0,0.0155,0.0168,0.0175,0.0191,0.0197,0.0209,0.0209,0.0216,0.0214,0.0212,0.0217,0.02,0.0199,0.0193,0.0182,0.0182,0.0165,0.0156,0.0143,0.0155,0.0125,0.0122,0.0152,0.0151,0.0151,0.015,0,0,0.0162,0.0186,0.019,0.0208,0.0218,0.023,0.0245,0.0258,0.0275,0.0262,0.0279,0.0263,0.025,0.0245,0.0228,0.0209,0.0189,0.0185,0.0183,0.0161,0.0139,0.0129,0.0124,0.0178,0.0178,0.0177,0.0117,0,0.0183,0.0216,0.0222,0.0259,0.0278,0.028,0.03,0.031,0.031,0.0322,0.0298,0.0306,0.0271,0.0274,0.0248,0.0206,0.0182,0.0206,0.0129,0.0126,0.0118,0.0121,0.0177,0.0114,0.0114,0.0113,0.0113,0,0.0204,0.0226,0.0263,0.0304,0.0314,0.0335,0.0369,0.0386,0.0392,0.0393,0.0385,0.0365,0.0341,0.0311,0.0235,0.0251,0.0199,0.0159,0.0156,0.0133,0.0111,0.01,0.0106,0.0107,0.0107,0.0107,0.0108,0,0.0219,0.0259,0.0294,0.0306,0.0344,0.0368,0.0392,0.0409,0.0437,0.0441,0.0456,0.0413,0.0404,0.0329,0.0241,0.0239,0.015,0.0139,0.008,0.0078,0.0088,0.0088,0.0087,0.0087,0.0087,0.0087,0.0087,0,0.024,0.027,0.0307,0.0327,0.0382,0.0397,0.0454,0.0468,0.0497,0.0536,0.0497,0.0506,0.0408,0.0346,0.0255,0.0154,0.0158,0.0083,0.0064,0.0104,0.0107,0.0085,0.0086,0.0085,0.0085,0.0086,0.0086,0,0.0252,0.0272,0.032,0.0369,0.0391,0.0433,0.0507,0.0546,0.0564,0.0612,0.0619,0.0577,0.0494,0.0385,0.0263,0.0183,0.0082,0.0045,0.0093,0.0077,0.0018,0.0021,-0.0023,-0.0024,-0.0025,-0.0025,-0.0026,0,0.026,0.0284,0.0352,0.0393,0.0421,0.0487,0.0538,0.0578,0.0623,0.0653,0.0677,0.0619,0.0574,0.0391,0.0267,0.0093,0.0068,0.0009,0.0016,0.0022,0.0008,0.0012,0.0016,-0.0027,-0.0027,-0.0027,-0.0027,0,0.0279,0.0303,0.0344,0.0425,0.0487,0.0564,0.0638,0.0673,0.0721,0.0735,0.0729,0.0641,0.0549,0.0398,0.0263,0.0137,0.0043,0.0002,0.0003,0.0008,0.0017,0.0005,0.0009,-0.003,-0.0029,-0.0029,-0.0029,0,0.0296,0.0329,0.0385,0.046,0.0539,0.0621,0.0659,0.0713,0.0754,0.0779,0.0769,0.0669,0.0609,0.0421,0.0294,0.017,0.014,0.0093,0.0088,0.0089,0.0136,0.0165,0.0149,0,0,0,0,0,0.0313,0.0354,0.0421,0.0504,0.0581,0.0633,0.0719,0.0751,0.0789,0.0791,0.0785,0.0698,0.052,0.044,0.0316,0.0274,0.0112,0.0123,0.0054,-0.0043,-0.004,-0.0005,0,0,0,0,0,0,0.0327,0.0385,0.0419,0.0525,0.0587,0.068,0.0737,0.0766,0.077,0.0781,0.0688,0.0653,0.0478,0.0588,0.0307,0.0271,0.0206,0.0043,0.004,-0.0044,-0.0042,-0.004,-0.0003,0,0,0,0,0]}]]